TSP Talk
logout   logout
Contact Us | Logout
     
September 25, 2017, 9:19 am (ET / EDT)
TSP Talk Market Comments TSP AutoTracker Premiums Site Map TSP Funds Forum Returns

                 
Tracker Main Menu | Tracker Member Menu | My IFT Records | How to Get Started | Email Updates
                 

Press Go back to the previous page

Members Returns for December 2016

Rank Username MTD Returns YTD Returns Start Date
1 felixthecat ** 5.12 % 18.93 % 2016-01-01
2 spgenius 4.75 % 11.60 % 2016-01-01
3 Mr_Boooom ** 4.75 % 16.97 % 2016-01-01
4 MrVela ** 4.75 % -1.29 % 2016-01-01
5 bjohnson12 4.01 % 13.18 % 2016-01-01
6 teribletowl 3.95 % 21.14 % 2016-01-01
7 SICK2MYSTOMACH 3.44 % 7.88 % 2016-07-25
8 RV7 3.44 % 2.10 % 2016-01-01
9 talking2jets 3.44 % -8.90 % 2016-01-01
10 tom1tom1 3.44 % 4.47 % 2016-01-01
11 mellowmoon 3.44 % 2.10 % 2016-01-01
12 Cruser 3.44 % -7.04 % 2016-01-01
13 crispy 3.44 % 2.10 % 2016-01-01
14 malyla ** 3.44 % 2.10 % 2016-01-01
15 kburke69 ** 3.44 % 10.68 % 2016-01-01
16 prisonguard224 ** 3.44 % 2.10 % 2016-01-01
17 I-fund 3.44 % 2.10 % 2016-01-01
18 jmartello ** 3.44 % 2.10 % 2016-01-01
19 nightlite ** 3.44 % 2.10 % 2016-01-01
20 jrutherford2 ** 3.44 % 2.10 % 2016-01-01
21 DCKevin ** 3.44 % 2.10 % 2016-01-01
22 2GodBtheGLORY ** 3.44 % 2.10 % 2016-01-01
23 BearTrap ** 3.44 % 2.10 % 2016-01-01
24 jajo1554 ** 3.44 % 2.10 % 2016-01-01
25 Kahuna6969 ** 3.44 % 2.10 % 2016-01-01
26 SavyNeal ** 3.44 % 2.10 % 2016-01-01
27 Sunnyday ** 3.44 % 2.10 % 2016-01-01
28 Shawhardy ** 3.44 % 2.10 % 2016-01-01
29 TwoYrs2Go 3.37 % 7.02 % 2016-01-01
30 skeeter 3.36 % 11.89 % 2016-01-01
31 MaxPowers 3.34 % -0.23 % 2016-01-01
32 Dorado 3.31 % 7.65 % 2016-01-01
33 Lester130 3.22 % 4.29 % 2016-05-19
34 fedgolfer 3.22 % 25.63 % 2016-01-01
35 bkc2a 3.22 % 17.96 % 2016-01-01
36 Jason.Z 3.22 % 17.96 % 2016-01-01
37 Bighorn6 3.20 % 16.72 % 2016-01-01
38 Pickles 3.16 % 16.10 % 2016-01-01
39 SCHAGAN 3.14 % 7.65 % 2016-01-01
40 Rico69 3.12 % 17.71 % 2016-01-01
41 Cash_Money 3.11 % 23.29 % 2016-02-01
42 JaBlack 3.07 % 7.23 % 2016-01-01
43 Birchtree ** 3.02 % 4.75 % 2016-01-01
44 jrhutch ** 2.99 % 4.45 % 2016-01-01
45 KNUCKLEDRAGGER 2.97 % 6.55 % 2016-01-01
46 ssdave 2.92 % -1.97 % 2016-01-01
47 ChessGuy ** 2.88 % 7.42 % 2016-01-01
48 Retire 2.87 % 10.37 % 2016-01-01
49 flybaby 2.85 % 4.92 % 2016-01-01
50 berline ** 2.83 % 7.00 % 2016-01-01
Rank Username MTD Returns YTD Returns Start Date
51 widdicom 2.81 % 16.62 % 2016-01-01
52 indgilbert 2.80 % 14.72 % 2016-01-20
53 Kaulana 2.79 % -2.77 % 2016-01-01
54 dunwichman ** 2.73 % 10.84 % 2016-01-01
55 Clue 2.71 % 0.90 % 2016-01-01
56 lbeeba8862 ** 2.71 % -2.01 % 2016-01-01
57 lucy 2.69 % 6.91 % 2016-01-01
58 robertbr1963 ** 2.69 % 7.96 % 2016-04-01
59 texcc ** 2.63 % 14.04 % 2016-01-01
60 Sports_Night ** 2.61 % 8.18 % 2016-01-01
61 sonyctx ** 2.61 % 8.19 % 2016-01-01
62 meltuna ** 2.60 % 13.77 % 2016-01-01
63 RBenes 2.57 % 11.08 % 2016-01-01
64 DaBears17 ** 2.57 % 12.43 % 2016-01-01
65 STCjUnKie ** 2.57 % 9.24 % 2016-01-01
66 Ezepilot ** 2.57 % 9.22 % 2016-01-01
67 rdsox05 ** 2.57 % 9.22 % 2016-01-01
68 bozdog ** 2.56 % 9.24 % 2016-01-01
69 neptune 2.55 % 10.33 % 2016-01-01
70 chinook 2.54 % 5.46 % 2016-01-01
71 Farm_Boy 2.54 % 6.91 % 2016-01-01
72 BigBully 2.53 % 5.99 % 2016-01-01
73 richargs62 ** 2.53 % 11.46 % 2016-01-01
74 JPW77 ** 2.52 % 9.60 % 2016-01-01
75 Retirein2024 2.51 % 4.45 % 2016-01-01
76 MakeItRain 2.51 % 14.15 % 2016-04-25
77 chemmie 2.51 % 8.09 % 2016-01-07
78 ILoveTDs 2.51 % 13.80 % 2016-01-01
79 1FraGar ** 2.51 % 8.33 % 2016-06-28
80 1crazyfatboy ** 2.51 % 9.70 % 2016-01-01
81 mboja ** 2.49 % 9.88 % 2016-01-01
82 lawnman ** 2.48 % 9.97 % 2016-01-01
83 bdmkg 2.47 % 8.82 % 2016-01-01
84 burz 2.47 % 10.04 % 2016-01-01
85 Cheng 2.47 % 9.43 % 2016-01-01
86 jwrivenb ** 2.47 % 10.04 % 2016-01-01
87 The_General 2.46 % 8.73 % 2016-01-01
88 misg4420 ** 2.44 % 9.82 % 2016-01-01
89 mzrost64 ** 2.44 % 9.70 % 2016-01-01
90 Tot_Global_Mkt ** 2.43 % 9.41 % 2016-01-01
91 MRJ 2.42 % -3.10 % 2016-01-01
92 MrBowl 2.42 % 0.65 % 2016-01-01
93 VPX11 2.42 % 2.42 % 2016-01-01
94 Timberwoof 2.41 % 1.87 % 2016-01-01
95 jasonlwright ** 2.41 % 13.59 % 2016-01-01
96 Captcaveman 2.40 % 18.01 % 2016-01-01
97 krempajs ** 2.40 % 8.13 % 2016-01-01
98 markisrt4 ** 2.40 % 6.01 % 2016-10-17
99 arquintana ** 2.39 % 10.27 % 2016-01-01
100 towncop1978 ** 2.38 % 10.89 % 2016-01-01
Rank Username MTD Returns YTD Returns Start Date
101 brentmc ** 2.38 % 9.04 % 2016-01-01
102 Maine-i-ac 2.37 % 7.04 % 2016-01-01
103 Sad_Al 2.37 % 14.07 % 2016-01-01
104 cyoa1fan 2.37 % 18.08 % 2016-05-24
105 aminze ** 2.37 % 10.99 % 2016-01-01
106 hawktecc1 ** 2.35 % 10.22 % 2016-01-01
107 kendig ** 2.34 % -3.27 % 2016-01-01
108 wevodau ** 2.34 % 8.68 % 2016-01-01
109 waveman43 ** 2.34 % 10.26 % 2016-01-01
110 crazyjames ** 2.34 % 10.13 % 2016-01-01
111 Hodster ** 2.33 % 10.45 % 2016-01-01
112 american42 ** 2.33 % 10.10 % 2016-01-01
113 lifeasrxd ** 2.33 % 10.95 % 2016-01-01
114 dctarheel ** 2.33 % 10.41 % 2016-01-01
115 GFundBaby ** 2.33 % 10.39 % 2016-01-01
116 GEW ** 2.32 % 10.52 % 2016-01-01
117 road_kill ** 2.32 % 19.22 % 2016-01-01
118 markmars ** 2.32 % 10.39 % 2016-01-01
119 hg1866 ** 2.32 % 10.40 % 2016-01-01
120 Moore ** 2.32 % 10.52 % 2016-01-01
121 Wilycoyote 2.31 % 4.01 % 2016-08-02
122 riptide17 2.31 % 12.95 % 2016-01-01
123 justbidinmytime ** 2.31 % -2.11 % 2016-01-01
124 Renegade ** 2.31 % 10.59 % 2016-01-01
125 cmil1212 ** 2.31 % 16.94 % 2016-01-07
126 cojo1988 ** 2.31 % 10.61 % 2016-01-01
127 tshare999 ** 2.31 % 10.50 % 2016-01-01
128 temptec ** 2.30 % 9.55 % 2016-01-01
129 millstadt05 ** 2.30 % 10.63 % 2016-01-01
130 flashmanxx ** 2.30 % 10.65 % 2016-01-01
131 PICK68 ** 2.30 % 10.79 % 2016-01-01
132 noclue 2.29 % 10.83 % 2016-01-01
133 fishhead ** 2.29 % 10.37 % 2016-01-01
134 Pill 2.28 % 10.97 % 2016-01-01
135 dlb11693 ** 2.28 % 19.15 % 2016-01-01
136 guahan96 ** 2.27 % 10.89 % 2016-01-01
137 Kong13 ** 2.27 % 11.04 % 2016-01-01
138 spinslight1 ** 2.27 % 11.05 % 2016-01-01
139 Tailgate 2.26 % 18.26 % 2016-01-01
140 RoldanFam 2.26 % 7.45 % 2016-01-01
141 lartra 2.26 % 5.27 % 2016-01-01
142 Ozzy_357924 ** 2.26 % 10.51 % 2016-01-01
143 danie906 ** 2.26 % 10.67 % 2016-01-01
144 furafura ** 2.26 % 10.64 % 2016-01-01
145 Gethers ** 2.26 % 8.47 % 2016-01-01
146 Ducksrule 2.25 % 17.00 % 2016-01-01
147 dave ** 2.25 % 7.24 % 2016-01-01
148 deward ** 2.25 % 11.52 % 2016-01-01
149 etawx ** 2.25 % 10.74 % 2016-01-01
150 jaks51 ** 2.24 % 12.14 % 2016-01-01
Rank Username MTD Returns YTD Returns Start Date
151 Forecaster ** 2.24 % 10.80 % 2016-01-01
152 jason011235813 ** 2.23 % 9.84 % 2016-01-01
153 cook79768 ** 2.23 % 11.30 % 2016-01-01
154 sarriola ** 2.23 % 9.56 % 2016-01-01
155 Risky11 ** 2.22 % 2.09 % 2016-11-28
156 EdwardSF ** 2.22 % 11.12 % 2016-01-01
157 snowmix ** 2.22 % 11.75 % 2016-01-01
158 wwwtractor ** 2.21 % 10.89 % 2016-01-01
159 redman1970 ** 2.21 % 2.99 % 2016-06-24
160 andy ** 2.21 % 10.27 % 2016-01-01
161 cwbys223 ** 2.21 % 12.45 % 2016-01-01
162 Ghageman ** 2.21 % 11.08 % 2016-01-01
163 gman48 2.20 % 8.00 % 2016-01-01
164 mirhow10 2.20 % 6.70 % 2016-01-01
165 phxmrc 2.20 % 5.97 % 2016-01-01
166 DCRanger 2.20 % 12.37 % 2016-01-01
167 trudger 2.20 % -9.03 % 2016-01-01
168 dhstdog 2.20 % 9.80 % 2016-01-01
169 dodgerblioux ** 2.20 % 11.00 % 2016-01-01
170 bjean 2.19 % 22.86 % 2016-01-01
171 SBic 2.19 % 5.10 % 2016-01-01
172 jswright ** 2.19 % 11.95 % 2016-01-01
173 sdidieu ** 2.19 % 3.01 % 2016-08-16
174 grube00 ** 2.19 % 10.43 % 2016-01-01
175 sapfm ** 2.19 % 11.93 % 2016-01-01
176 texaggies89 2.18 % 9.50 % 2016-01-01
177 rch8710 ** 2.18 % 11.10 % 2016-01-01
178 SledgeTSP 2.17 % 9.60 % 2016-01-01
179 jmtz54 2.17 % 11.59 % 2016-01-01
180 Big_Sarge ** 2.17 % 11.79 % 2016-01-01
181 bloodbath ** 2.17 % 9.94 % 2016-04-01
182 CRUSHER ** 2.17 % 11.18 % 2016-01-01
183 Macgyva ** 2.17 % 11.74 % 2016-01-01
184 BirchNWS ** 2.17 % 11.78 % 2016-01-01
185 RevShark 2.16 % 8.23 % 2016-01-01
186 Boozin1 ** 2.16 % 15.98 % 2016-03-04
187 nightsters 2.15 % -2.17 % 2016-01-01
188 Brosef105 2.15 % 10.75 % 2016-01-01
189 Supernova2033 ** 2.15 % 13.06 % 2016-01-01
190 GenStar 2.14 % 11.50 % 2016-01-01
191 BessMan94 ** 2.14 % 12.01 % 2016-01-01
192 evimoore ** 2.14 % 12.02 % 2016-01-01
193 Hamhocs 2.13 % 10.57 % 2016-01-01
194 gaharris ** 2.13 % 12.39 % 2016-01-01
195 zegerst ** 2.13 % 13.26 % 2016-01-01
196 Beamer 2.12 % 9.59 % 2016-01-01
197 DCop 2.12 % -2.29 % 2016-01-01
198 dtrax ** 2.12 % 12.17 % 2016-01-01
199 IceJoe ** 2.12 % 12.44 % 2016-01-01
200 Short ** 2.12 % 11.84 % 2016-01-01
Rank Username MTD Returns YTD Returns Start Date
201 vafunkie ** 2.11 % 12.83 % 2016-01-01
202 usfwsduckriverman ** 2.11 % 11.73 % 2016-01-01
203 Clemso ** 2.10 % 13.46 % 2016-01-01
204 gsamx ** 2.10 % 13.49 % 2016-01-01
205 DigDugII ** 2.10 % 13.53 % 2016-01-01
206 Highroller ** 2.09 % 11.66 % 2016-01-01
207 invisiblebutterknife ** 2.09 % 11.51 % 2016-01-01
208 WallStreet ** 2.08 % 11.99 % 2016-01-01
209 jsmiles 2.07 % 9.45 % 2016-01-01
210 smiles 2.07 % 9.45 % 2016-01-01
211 hotwings 2.07 % 11.00 % 2016-01-01
212 fluffypotato ** 2.06 % 13.05 % 2016-01-01
213 vegastsp 2.05 % 10.00 % 2016-01-01
214 rgncajun68 ** 2.05 % 9.70 % 2016-01-01
215 tsclippinger ** 2.05 % 2.29 % 2016-08-23
216 workdamnit ** 2.05 % 16.70 % 2016-02-24
217 93GT 2.04 % 8.65 % 2016-01-01
218 biomedrick ** 2.04 % 6.48 % 2016-01-01
219 Scubadiver101 ** 2.04 % 8.65 % 2016-01-01
220 Jayt23 ** 2.04 % 10.23 % 2016-01-01
221 L2050 2.04 % 8.65 % 2016-01-01
222 tashabh ** 2.04 % 8.65 % 2016-01-01
223 Caith ** 2.04 % 8.31 % 2016-03-30
224 Kjay ** 2.04 % 4.61 % 2016-01-01
225 zackeone ** 2.04 % 14.71 % 2016-01-08
226 gio20 ** 2.04 % 8.65 % 2016-01-01
227 doug.hornback ** 2.04 % 8.65 % 2016-01-01
228 khunk ** 2.04 % 8.65 % 2016-01-01
229 qbcall11 ** 2.04 % 8.65 % 2016-01-01
230 Shivers ** 2.04 % 8.65 % 2016-01-01
231 Sniki ** 2.04 % 12.85 % 2016-01-01
232 Wrngway ** 2.04 % 8.65 % 2016-01-01
233 DesertBoots77 ** 2.04 % 8.65 % 2016-01-01
234 luthebe 2.03 % 16.61 % 2016-01-01
235 Ohskeptic 2.03 % 9.99 % 2016-01-01
236 Roddhsi 2.03 % -1.04 % 2016-01-01
237 bjones7 2.02 % 12.22 % 2016-02-18
238 bombnav1 ** 2.02 % 11.66 % 2016-01-01
239 kmx23 ** 2.02 % 11.73 % 2016-01-01
240 dallashalos 2.01 % 0.18 % 2016-01-01
241 Kotcha ** 2.01 % 13.31 % 2016-01-01
242 urmomzbox ** 2.01 % 13.26 % 2016-01-01
243 iyoung ** 2.00 % 13.87 % 2016-01-01
244 DaddyTin ** 2.00 % 7.81 % 2016-03-01
245 judochop ** 2.00 % 3.65 % 2016-01-01
246 spacepoints ** 2.00 % 9.10 % 2016-01-01
247 Pittdog 1.99 % 12.10 % 2016-01-01
248 eecscoder ** 1.99 % 13.73 % 2016-01-01
249 xsoljuhxpnoi929 1.98 % 8.51 % 2016-01-01
250 ShadowHawk 1.98 % 15.38 % 2016-01-01
Rank Username MTD Returns YTD Returns Start Date
251 berg1315 1.98 % 12.01 % 2016-01-01
252 ken863 1.98 % 11.69 % 2016-01-05
253 flg22 1.98 % 12.01 % 2016-01-01
254 BigMike ** 1.98 % 12.01 % 2016-01-01
255 TommyIV ** 1.98 % 19.02 % 2016-01-01
256 gsrider ** 1.98 % 10.71 % 2016-01-01
257 rebel346 ** 1.98 % 10.96 % 2016-01-01
258 arrow_point ** 1.98 % 11.46 % 2016-01-01
259 vexter ** 1.98 % 12.81 % 2016-01-01
260 Sign_Stealer ** 1.98 % 5.52 % 2016-01-01
261 babydux ** 1.98 % 12.01 % 2016-01-01
262 C-fund 1.98 % 12.01 % 2016-01-01
263 Kayakfish ** 1.98 % 21.59 % 2016-01-19
264 JTH ** 1.98 % 7.51 % 2016-01-01
265 JTH-ALPAFS ** 1.98 % 3.18 % 2016-01-01
266 JTH-ESD ** 1.98 % 16.04 % 2016-01-01
267 MMAC_POPS ** 1.98 % 12.01 % 2016-01-01
268 cthomas946 ** 1.98 % 7.27 % 2016-01-01
269 agogley ** 1.98 % 12.01 % 2016-01-01
270 respro ** 1.98 % 7.87 % 2016-01-01
271 brobrash ** 1.98 % 14.93 % 2016-01-01
272 ejones0421 ** 1.98 % 19.04 % 2016-01-08
273 ranma143 ** 1.98 % 12.01 % 2016-01-01
274 Lucky91 ** 1.98 % 12.01 % 2016-01-01
275 Mack-Daddy ** 1.98 % 12.01 % 2016-01-01
276 Sarchie ** 1.98 % 12.01 % 2016-01-01
277 Devilduck ** 1.98 % 12.01 % 2016-01-01
278 HotRod ** 1.98 % 12.01 % 2016-01-01
279 Jrgruters42 ** 1.98 % 12.01 % 2016-01-01
280 abqsammy ** 1.98 % 12.01 % 2016-01-01
281 Andeano ** 1.98 % 10.94 % 2016-01-01
282 BLPinDC ** 1.98 % 12.01 % 2016-01-01
283 buckeyefan201 ** 1.98 % 10.98 % 2016-01-01
284 CheckRaze ** 1.98 % 12.01 % 2016-01-01
285 Heisenberg ** 1.98 % 12.01 % 2016-01-01
286 jssmith58 ** 1.98 % 12.01 % 2016-01-01
287 leadoff2 ** 1.98 % 12.01 % 2016-01-01
288 MadMoneyJesse ** 1.98 % 12.01 % 2016-01-01
289 melandblue ** 1.98 % 12.01 % 2016-01-01
290 mepage ** 1.98 % 12.01 % 2016-01-01
291 messimoves ** 1.98 % 12.01 % 2016-01-01
292 MOVINUP ** 1.98 % 12.01 % 2016-01-01
293 pcola5625 ** 1.98 % 12.01 % 2016-01-01
294 ShadowAx ** 1.98 % 12.01 % 2016-01-01
295 shaner19er ** 1.98 % 10.61 % 2016-01-01
296 Sirius ** 1.98 % 12.01 % 2016-01-01
297 squid3326 ** 1.98 % 12.01 % 2016-01-01
298 TheRealEDtheFED ** 1.98 % 12.01 % 2016-01-01
299 justjeff ** 1.98 % 12.01 % 2016-01-01
300 NotReally! 1.97 % 16.43 % 2016-01-01
Rank Username MTD Returns YTD Returns Start Date
301 martint4 ** 1.96 % 10.39 % 2016-01-01
302 Sonic 1.95 % 2.59 % 2016-01-01
303 uniquedabs 1.95 % 12.66 % 2016-01-01
304 silversurfer ** 1.95 % 12.67 % 2016-01-01
305 Appatite ** 1.95 % 14.72 % 2016-01-01
306 TDStrange 1.94 % 8.11 % 2016-01-01
307 3days 1.94 % 31.95 % 2016-01-01
308 mikeb 1.94 % 10.22 % 2016-01-01
309 evchau ** 1.94 % 12.12 % 2016-01-01
310 Barney ** 1.94 % 14.61 % 2016-01-01
311 Marshal1789 ** 1.94 % 0.07 % 2016-01-01
312 almostdone ** 1.94 % 13.02 % 2016-01-01
313 bcf0514 ** 1.94 % 13.05 % 2016-01-01
314 ijmurray ** 1.94 % 15.04 % 2016-01-01
315 14bk41 1.93 % 10.25 % 2016-02-05
316 Aviator_Guy 1.93 % 17.28 % 2016-01-01
317 glysergt 1.93 % 8.71 % 2016-07-01
318 Benny7563 1.93 % 13.84 % 2016-01-01
319 Beacher1 ** 1.93 % 9.19 % 2016-11-04
320 AzzySpazbourne ** 1.93 % 12.80 % 2016-01-01
321 atarrin ** 1.93 % 9.31 % 2016-01-01
322 Craigart ** 1.93 % 13.27 % 2016-01-01
323 GWXX ** 1.93 % 13.28 % 2016-01-01
324 kahuna357 ** 1.93 % 12.10 % 2016-01-01
325 Morpheus 1.92 % 8.64 % 2016-01-01
326 Cathy57 1.92 % 9.57 % 2016-01-01
327 jdeacon ** 1.92 % 10.22 % 2016-01-01
328 trobbi33 ** 1.92 % 13.46 % 2016-01-01
329 nicole5001 ** 1.92 % 2.92 % 2016-09-02
330 ksklmiller ** 1.92 % 12.52 % 2016-01-01
331 GetPoint 1.91 % 5.86 % 2016-07-20
332 UCFVern 1.91 % 4.99 % 2016-08-18
333 Jayru ** 1.91 % 10.20 % 2016-01-01
334 kevmanfoo ** 1.91 % 11.04 % 2016-01-01
335 Rod ** 1.91 % 13.80 % 2016-01-01
336 ttn ** 1.91 % 14.17 % 2016-01-01
337 OkieJay ** 1.91 % 5.50 % 2016-10-07
338 DakotaKid ** 1.91 % 13.73 % 2016-01-01
339 Widget ** 1.91 % 13.70 % 2016-01-01
340 garrisoco ** 1.91 % 13.67 % 2016-01-01
341 mdearman ** 1.91 % 10.07 % 2016-01-01
342 Piniquim ** 1.91 % 13.68 % 2016-01-01
343 shagerty ** 1.91 % 13.70 % 2016-01-01
344 Total_US_Market ** 1.91 % 13.66 % 2016-01-01
345 rotti ** 1.91 % 13.69 % 2016-01-01
346 dcmorgan ** 1.91 % 13.69 % 2016-01-01
347 JamesE 1.90 % 6.11 % 2016-01-01
348 SWAVET 1.90 % 5.90 % 2016-01-01
349 Skooby 1.90 % 14.14 % 2016-01-01
350 OBGibby 1.90 % 11.39 % 2016-01-01
Rank Username MTD Returns YTD Returns Start Date
351 dunedad 1.90 % 14.12 % 2016-01-01
352 marshad_786 1.90 % 2.56 % 2016-01-01
353 RWJorg ** 1.90 % 14.11 % 2016-01-01
354 helen ** 1.90 % 14.13 % 2016-01-01
355 poolman ** 1.90 % 4.28 % 2016-01-01
356 25or6to4 ** 1.90 % 14.16 % 2016-01-01
357 rayald ** 1.90 % 14.10 % 2016-01-01
358 pamkk ** 1.90 % 14.13 % 2016-01-01
359 franky ** 1.90 % 10.27 % 2016-01-05
360 pcalderin ** 1.90 % 14.10 % 2016-01-01
361 SPN46er ** 1.90 % 14.10 % 2016-01-01
362 SSJodon ** 1.90 % 14.12 % 2016-01-01
363 Brandon ** 1.90 % 14.10 % 2016-01-01
364 exnavyew ** 1.90 % 14.10 % 2016-01-01
365 Rumpelstilzchen ** 1.90 % 14.12 % 2016-01-01
366 vbbikerbums ** 1.90 % 14.11 % 2016-01-01
367 JimmyJoe ** 1.90 % 15.00 % 2016-01-01
368 SkyPilot ** 1.90 % 14.15 % 2016-01-01
369 MoneyManager ** 1.90 % 14.05 % 2016-01-01
370 KneednDough ** 1.90 % 14.10 % 2016-01-01
371 bettertrader ** 1.90 % 14.14 % 2016-01-01
372 bubba71842 ** 1.90 % 14.15 % 2016-01-01
373 Ddarko ** 1.90 % 14.11 % 2016-01-01
374 divemonkey ** 1.90 % 14.15 % 2016-01-01
375 future ** 1.90 % 14.14 % 2016-01-01
376 HocusPocus ** 1.90 % 14.08 % 2016-01-01
377 jpaulhus ** 1.90 % 14.07 % 2016-01-01
378 Raxser ** 1.90 % 14.14 % 2016-01-01
379 retire2017 ** 1.90 % 14.12 % 2016-01-01
380 SuzinCity ** 1.90 % 14.12 % 2016-01-01
381 valions15 ** 1.90 % 14.07 % 2016-01-01
382 Lucas123 ** 1.90 % 14.14 % 2016-01-01
383 weigerber55 ** 1.90 % 14.12 % 2016-01-01
384 rivs ** 1.90 % 14.07 % 2016-01-01
385 drgonzo58 ** 1.90 % 14.12 % 2016-01-01
386 stovepiper ** 1.90 % 14.11 % 2016-01-01
387 packerbart 1.89 % 12.57 % 2016-01-01
388 dminter 1.89 % 7.14 % 2016-01-01
389 resurgemus 1.89 % 11.94 % 2016-01-12
390 joehacker 1.89 % 15.60 % 2016-01-01
391 rossbrian00 1.89 % 22.89 % 2016-01-01
392 Mantonelli 1.89 % 8.24 % 2016-06-29
393 TSP-roulette 1.89 % 7.52 % 2016-01-01
394 kbennet1 1.89 % 7.32 % 2016-01-01
395 bmcar 1.89 % 20.04 % 2016-01-01
396 OhioOkie ** 1.89 % 14.18 % 2016-01-01
397 8_percent ** 1.89 % 13.43 % 2016-01-01
398 goforit ** 1.89 % 14.43 % 2016-01-01
399 puppylove ** 1.89 % 14.43 % 2016-01-01
400 inyadreems ** 1.89 % 13.23 % 2016-01-01
Rank Username MTD Returns YTD Returns Start Date
401 1derman ** 1.89 % 8.43 % 2016-01-01
402 eddie3375 ** 1.89 % 14.17 % 2016-01-01
403 martycox88 ** 1.89 % 9.28 % 2016-01-01
404 don3149 ** 1.89 % 17.62 % 2016-01-01
405 CapnEddie ** 1.89 % 9.85 % 2016-01-11
406 Wizard_of_Oz ** 1.89 % 9.96 % 2016-01-01
407 mceglia ** 1.89 % 5.24 % 2016-09-27
408 nmhs ** 1.89 % 15.80 % 2016-01-01
409 scubasteve1 ** 1.89 % 12.30 % 2016-04-15
410 tlap612 ** 1.89 % 12.85 % 2016-01-01
411 MYDOGZCUTE ** 1.89 % 13.50 % 2016-01-01
412 elufints ** 1.89 % 14.18 % 2016-01-01
413 JG2017 ** 1.89 % 22.54 % 2016-01-06
414 Stony ** 1.89 % 14.06 % 2016-01-01
415 surftec ** 1.89 % 14.56 % 2016-01-01
416 RAMORIPKIN ** 1.89 % 14.17 % 2016-01-01
417 tgun ** 1.89 % 14.18 % 2016-01-01
418 Gun_Plumber ** 1.89 % 14.18 % 2016-01-01
419 tmntrc56 ** 1.89 % 14.29 % 2016-01-01
420 soupykid 1.88 % 6.70 % 2016-01-01
421 1Mech 1.88 % 10.08 % 2016-01-01
422 papahotel66 1.88 % 12.25 % 2016-01-01
423 Desertgrass 1.88 % 11.99 % 2016-01-01
424 rwwjr65 ** 1.88 % 7.11 % 2016-07-21
425 kibey84 ** 1.88 % 14.79 % 2016-04-04
426 TSPBrett ** 1.88 % 14.57 % 2016-01-01
427 itsRaining ** 1.88 % 28.42 % 2016-01-11
428 DoughBoy ** 1.88 % 14.61 % 2016-01-01
429 Calicat69 ** 1.88 % 8.91 % 2016-01-01
430 Gain10 ** 1.88 % 14.55 % 2016-01-01
431 joharo ** 1.88 % 14.53 % 2016-01-01
432 frixxxx 1.87 % 14.77 % 2016-01-01
433 badgerland 1.87 % 11.70 % 2016-01-01
434 MoneyTalks 1.87 % 3.61 % 2016-01-01
435 EricDeLee 1.86 % 13.02 % 2016-01-01
436 Jetpowered78 1.86 % 12.35 % 2016-03-22
437 Unmanned 1.86 % 12.31 % 2016-01-01
438 mcash ** 1.86 % 8.37 % 2016-01-01
439 Tubman83 ** 1.86 % 7.35 % 2016-01-01
440 lmbebo ** 1.86 % 2.42 % 2016-11-17
441 stacks ** 1.86 % 7.39 % 2016-07-19
442 Kafkaesquee ** 1.86 % 15.06 % 2016-01-01
443 bigguy7408 ** 1.86 % 14.94 % 2016-01-01
444 jerzystang ** 1.86 % 9.05 % 2016-01-01
445 RookieInvestor ** 1.86 % 10.58 % 2016-01-01
446 sage ** 1.86 % 11.94 % 2016-01-01
447 Awsum_Al ** 1.86 % 14.98 % 2016-01-01
448 kathy73 1.85 % 3.90 % 2016-01-01
449 pdug 1.85 % 6.64 % 2016-01-01
450 maverick06 1.85 % 9.43 % 2016-01-01
Rank Username MTD Returns YTD Returns Start Date
451 mrtruckaudi 1.85 % 15.92 % 2016-01-01
452 Boghie 1.85 % 7.98 % 2016-01-01
453 redman2222 ** 1.85 % 5.78 % 2016-01-01
454 william4x ** 1.85 % 10.40 % 2016-01-01
455 PIC153BD ** 1.85 % 15.62 % 2016-01-01
456 Burt ** 1.85 % 15.21 % 2016-01-01
457 savagemojo ** 1.85 % 15.23 % 2016-01-01
458 Sandbagger6 1.84 % 6.89 % 2016-01-01
459 FedSince2009 ** 1.84 % 1.79 % 2016-11-28
460 markopolno12 ** 1.84 % 15.47 % 2016-01-01
461 mpie72 ** 1.84 % 12.18 % 2016-01-01
462 Roldan60 ** 1.84 % 10.10 % 2016-01-01
463 Mercy ** 1.83 % 7.80 % 2016-01-01
464 Bball ** 1.83 % 5.44 % 2016-01-01
465 IFTrader 1.82 % 7.61 % 2016-01-01
466 Mustangmoose302 1.82 % 8.98 % 2016-01-01
467 L2040 1.82 % 7.90 % 2016-01-01
468 soupygirl ** 1.82 % 5.62 % 2016-04-21
469 Salmon365 ** 1.82 % 7.90 % 2016-01-01
470 soam24 ** 1.82 % 7.40 % 2016-01-01
471 Castronaut ** 1.82 % 7.90 % 2016-01-01
472 cbp03 ** 1.82 % 12.22 % 2016-01-01
473 Forcefed ** 1.82 % 7.90 % 2016-01-01
474 GOVOLS ** 1.82 % 7.90 % 2016-01-01
475 soupydog ** 1.82 % 7.90 % 2016-01-01
476 Tvenos ** 1.82 % 7.90 % 2016-01-01
477 asuasylum 1.81 % 7.24 % 2016-01-01
478 nasa1974 1.81 % 16.35 % 2016-01-01
479 golfbum1 1.81 % 16.35 % 2016-01-01
480 SPOT_LT 1.81 % 24.19 % 2016-01-01
481 maui21ice 1.81 % 16.35 % 2016-01-01
482 2Plus 1.81 % 12.00 % 2016-01-01
483 daschunds 1.81 % 6.96 % 2016-01-01
484 freemanick 1.81 % 7.90 % 2016-01-01
485 LAT 1.81 % -4.27 % 2016-01-01
486 marco59 1.81 % 12.11 % 2016-01-01
487 RX-7 1.81 % 14.73 % 2016-01-01
488 Joey 1.81 % 2.18 % 2016-01-01
489 JVC1979 1.81 % 8.96 % 2016-01-01
490 Skip 1.81 % 15.26 % 2016-01-01
491 thinkman 1.81 % 4.68 % 2016-01-01
492 tspintel 1.81 % 16.35 % 2016-01-01
493 skid-kid 1.81 % 16.35 % 2016-01-01
494 Bullet 1.81 % 2.43 % 2016-01-01
495 mikepop 1.81 % 2.53 % 2016-01-01
496 eshore07 1.81 % 16.11 % 2016-01-01
497 Mach1fun 1.81 % 16.78 % 2016-01-01
498 RDJ67 1.81 % 2.76 % 2016-01-01
499 48cj2a 1.81 % -8.33 % 2016-01-01
500 b52vqn 1.81 % 16.35 % 2016-01-01
Rank Username MTD Returns YTD Returns Start Date
501 bluecrab 1.81 % 16.35 % 2016-01-01
502 crommie 1.81 % 10.31 % 2016-01-01
503 docdon3 1.81 % 15.16 % 2016-01-01
504 rothnroll 1.81 % 3.88 % 2016-01-01
505 oOSupremeOo 1.81 % 17.17 % 2016-03-30
506 tidaho 1.81 % 7.99 % 2016-01-01
507 Damndogs 1.81 % 12.61 % 2016-01-01
508 luckhapp 1.81 % 16.35 % 2016-01-01
509 LoveGrows 1.81 % 7.94 % 2016-07-13
510 klaron 1.81 % 16.73 % 2016-01-01
511 Wildwoman 1.81 % 7.69 % 2016-01-01
512 coop65 1.81 % 13.31 % 2016-01-01
513 G-Money 1.81 % 15.93 % 2016-01-01
514 Jrfich 1.81 % 29.82 % 2016-01-01
515 Racerx919 1.81 % 16.35 % 2016-01-01
516 Whipsaw 1.81 % 7.43 % 2016-01-01
517 Hawgjo 1.81 % 7.76 % 2016-01-01
518 Scraps 1.81 % 9.87 % 2016-01-01
519 LMBF1-CI>S 1.81 % 13.34 % 2016-01-01
520 LMBF1_C>S 1.81 % 13.74 % 2016-01-01
521 LMBF1_Day 1.81 % 14.19 % 2016-01-01
522 LMBF1_SIM 1.81 % 15.10 % 2016-01-01
523 janemattress711 1.81 % 11.16 % 2016-01-01
524 KyFan1 1.81 % 8.73 % 2016-01-01
525 Chuckie 1.81 % 18.66 % 2016-01-01
526 rbizz 1.81 % 12.33 % 2016-01-11
527 Babygirl07 1.81 % 13.40 % 2016-01-01
528 Maricar19 1.81 % 3.73 % 2016-01-01
529 adestonobis 1.81 % 18.70 % 2016-01-01
530 retire2026 1.81 % 7.49 % 2016-01-01
531 al5555 1.81 % 16.35 % 2016-01-01
532 moneymikem 1.81 % 15.73 % 2016-01-01
533 Navig8tor 1.81 % 15.04 % 2016-01-01
534 cmccall661 1.81 % 19.39 % 2016-06-02
535 geargirl 1.81 % 9.50 % 2016-01-01
536 BigJohn 1.81 % 19.13 % 2016-01-01
537 rhinocwarren 1.81 % 16.35 % 2016-01-01
538 thewingreaper 1.81 % -7.60 % 2016-01-01
539 40calSue 1.81 % 16.35 % 2016-01-01
540 steve10608 1.81 % 16.35 % 2016-01-01
541 philcam 1.81 % 25.63 % 2016-01-01
542 David 1.81 % 3.97 % 2016-01-01
543 krash9561 1.81 % 16.35 % 2016-01-01
544 fran1775 ** 1.81 % 9.40 % 2016-01-01
545 tankerclown ** 1.81 % 8.50 % 2016-01-01
546 wagin ** 1.81 % 16.35 % 2016-01-01
547 MaStA ** 1.81 % 16.35 % 2016-01-01
548 msls6 ** 1.81 % 16.35 % 2016-01-01
549 jwblanfo ** 1.81 % 8.06 % 2016-07-27
550 Bill3438 ** 1.81 % 16.35 % 2016-01-01
Rank Username MTD Returns YTD Returns Start Date
551 Mista_Magee ** 1.81 % 9.17 % 2016-01-01
552 Cashflow911 ** 1.81 % 20.09 % 2016-01-01
553 nightman ** 1.81 % 10.45 % 2016-01-01
554 jerodt ** 1.81 % 14.03 % 2016-01-01
555 gronk007 ** 1.81 % 16.35 % 2016-01-01
556 NavyEng ** 1.81 % 16.35 % 2016-01-01
557 soupyBeard ** 1.81 % 14.41 % 2016-01-01
558 kodaq2001 ** 1.81 % 16.50 % 2016-01-01
559 caseyd8s ** 1.81 % 16.35 % 2016-01-01
560 ArchAngel ** 1.81 % 12.85 % 2016-01-01
561 czapor1967 ** 1.81 % 22.57 % 2016-01-01
562 sillbeer ** 1.81 % 16.35 % 2016-01-01
563 dialing4dollars ** 1.81 % -5.42 % 2016-01-01
564 hoipolloiHanoi ** 1.81 % 16.29 % 2016-01-01
565 qkersey ** 1.81 % 16.35 % 2016-01-01
566 a1sauce ** 1.81 % 16.35 % 2016-01-01
567 bailemi ** 1.81 % 9.68 % 2016-01-01
568 ILTDtechnical ** 1.81 % 16.39 % 2016-01-01
569 meehancv ** 1.81 % 16.35 % 2016-01-01
570 HarleyLar ** 1.81 % 10.08 % 2016-01-01
571 mdunhom ** 1.81 % 16.35 % 2016-01-01
572 jplecain ** 1.81 % 15.47 % 2016-01-01
573 rallythis ** 1.81 % 16.35 % 2016-01-01
574 Brinky ** 1.81 % 23.35 % 2016-01-01
575 ckeiththeman ** 1.81 % 16.35 % 2016-01-01
576 rchurchwell ** 1.81 % 0.83 % 2016-01-01
577 gibby289 ** 1.81 % 16.35 % 2016-01-01
578 retire15 ** 1.81 % 16.35 % 2016-01-01
579 madchili ** 1.81 % 16.35 % 2016-01-01
580 peterson82 ** 1.81 % 18.26 % 2016-01-01
581 sigj ** 1.81 % 16.35 % 2016-01-01
582 BrkBred247 ** 1.81 % 9.36 % 2016-01-01
583 Peteylaw06 ** 1.81 % 2.29 % 2016-01-01
584 bluedevil ** 1.81 % 17.71 % 2016-03-23
585 S-fund 1.81 % 16.35 % 2016-01-01
586 mikepriest ** 1.81 % 10.31 % 2016-01-01
587 Semperinvest ** 1.81 % 16.35 % 2016-01-01
588 mxtwo50r ** 1.81 % 1.59 % 2016-11-23
589 dseery3 ** 1.81 % 1.59 % 2016-11-28
590 spantzer ** 1.81 % 25.14 % 2016-01-01
591 jbvollmer ** 1.81 % 16.35 % 2016-01-01
592 bylow-cellhi ** 1.81 % 16.35 % 2016-01-01
593 ryan82884 ** 1.81 % 11.48 % 2016-07-11
594 mr47930 ** 1.81 % 7.41 % 2016-04-19
595 MissedOpport ** 1.81 % 16.35 % 2016-01-01
596 canmannc ** 1.81 % 16.35 % 2016-01-01
597 captjamied ** 1.81 % 6.28 % 2016-08-15
598 Bettinainc ** 1.81 % -0.95 % 2016-01-01
599 Woodys_World ** 1.81 % 16.35 % 2016-01-01
600 jetjammr ** 1.81 % 16.35 % 2016-01-01
Rank Username MTD Returns YTD Returns Start Date
601 68chevy ** 1.81 % 14.75 % 2016-01-01
602 sythbpr ** 1.81 % 12.73 % 2016-06-10
603 whatabout ** 1.81 % 16.35 % 2016-01-01
604 Aiagib ** 1.81 % 16.35 % 2016-01-01
605 MahiChaser ** 1.81 % 9.97 % 2016-01-01
606 driz ** 1.81 % 16.35 % 2016-01-01
607 atenciord ** 1.81 % 14.78 % 2016-01-01
608 skunktownbm ** 1.81 % 7.35 % 2016-01-01
609 Saledo ** 1.81 % 13.11 % 2016-03-21
610 mosicki ** 1.81 % 11.64 % 2016-01-01
611 yost ** 1.81 % 16.35 % 2016-01-01
612 sea dog ** 1.81 % 16.35 % 2016-01-01
613 Sensei ** 1.81 % 6.66 % 2016-01-01
614 scaredstiff ** 1.81 % 16.35 % 2016-01-01
615 Orthok ** 1.81 % 28.20 % 2016-02-22
616 FillmoreRacer ** 1.81 % 16.35 % 2016-01-01
617 kleios ** 1.81 % 16.35 % 2016-01-01
618 walterramjet ** 1.81 % 16.35 % 2016-01-01
619 RabbiTuckman ** 1.81 % 16.35 % 2016-01-01
620 Dexter ** 1.81 % 26.06 % 2016-01-11
621 sdsurfer ** 1.81 % 25.39 % 2016-01-01
622 BReine13 ** 1.81 % 16.35 % 2016-01-01
623 DylanFan ** 1.81 % 16.35 % 2016-01-01
624 joshdubya ** 1.81 % 18.32 % 2016-01-05
625 mollshark ** 1.81 % 16.35 % 2016-01-01
626 recki13 ** 1.81 % 16.35 % 2016-01-01
627 kawzman ** 1.81 % 16.35 % 2016-01-01
628 NiteFlyer ** 1.81 % 16.35 % 2016-01-01
629 sniper ** 1.81 % 16.35 % 2016-01-01
630 Uptrend ** 1.81 % 16.35 % 2016-01-01
631 Legend ** 1.81 % 16.35 % 2016-01-01
632 Hank2 ** 1.81 % 16.35 % 2016-01-01
633 jy1515 ** 1.81 % 16.35 % 2016-01-01
634 barryc ** 1.81 % 16.35 % 2016-01-01
635 tdinfl ** 1.81 % 16.35 % 2016-01-01
636 HookemDanno ** 1.81 % 16.35 % 2016-01-01
637 vdubya ** 1.81 % 16.35 % 2016-01-01
638 Dave98 ** 1.81 % 16.35 % 2016-01-01
639 bigship2 ** 1.81 % 16.35 % 2016-01-01
640 applejack ** 1.81 % 16.35 % 2016-01-01
641 D_Brown ** 1.81 % 16.35 % 2016-01-01
642 Piesanders ** 1.81 % 16.35 % 2016-01-01
643 uphan ** 1.81 % 16.35 % 2016-01-01
644 Cmarq2k2 ** 1.81 % 16.35 % 2016-01-01
645 ReverendHerc ** 1.81 % 16.35 % 2016-01-01
646 antauz ** 1.81 % 16.35 % 2016-01-01
647 horseman ** 1.81 % 16.35 % 2016-01-01
648 SPUR ** 1.81 % 16.35 % 2016-01-01
649 uscs344 ** 1.81 % 16.35 % 2016-01-01
650 1953greg ** 1.81 % 16.35 % 2016-01-01
Rank Username MTD Returns YTD Returns Start Date
651 5hundy ** 1.81 % 16.35 % 2016-01-01
652 accountant02130 ** 1.81 % 16.35 % 2016-01-01
653 airadam23 ** 1.81 % 16.35 % 2016-01-01
654 albwrong ** 1.81 % 16.35 % 2016-01-01
655 andercee ** 1.81 % 16.35 % 2016-01-01
656 Asylum ** 1.81 % 16.35 % 2016-01-01
657 barb41048 ** 1.81 % 16.35 % 2016-01-01
658 BichonFreeze ** 1.81 % 16.35 % 2016-01-01
659 bigcat61 ** 1.81 % 16.35 % 2016-01-01
660 bigdawg45 ** 1.81 % 16.35 % 2016-01-01
661 bobmarley753 ** 1.81 % 16.35 % 2016-01-01
662 BP171 ** 1.81 % 16.35 % 2016-01-01
663 Bravos_Time! ** 1.81 % 16.35 % 2016-01-01
664 bucket ** 1.81 % 16.35 % 2016-01-01
665 ccharsh22 ** 1.81 % 16.35 % 2016-01-01
666 Dalz ** 1.81 % 16.35 % 2016-01-01
667 danimal79 ** 1.81 % 16.35 % 2016-01-01
668 Dartman ** 1.81 % 16.35 % 2016-01-01
669 delldell ** 1.81 % 16.35 % 2016-01-01
670 dojdave ** 1.81 % 16.35 % 2016-01-01
671 DonKeyhote ** 1.81 % 16.35 % 2016-01-01
672 Dsots ** 1.81 % 16.35 % 2016-01-01
673 e03179 ** 1.81 % 16.35 % 2016-01-01
674 eich09 ** 1.81 % 16.35 % 2016-01-01
675 elinca ** 1.81 % 16.35 % 2016-01-01
676 engr_villa ** 1.81 % 16.35 % 2016-01-01
677 ericwinn ** 1.81 % 16.35 % 2016-01-01
678 FISHHEADS ** 1.81 % 16.35 % 2016-01-01
679 flipman ** 1.81 % 16.35 % 2016-01-01
680 gagobutos ** 1.81 % 16.35 % 2016-01-01
681 gdraft ** 1.81 % 16.35 % 2016-01-01
682 geko00 ** 1.81 % 16.35 % 2016-01-01
683 hardyandtiny ** 1.81 % 16.35 % 2016-01-01
684 Howanic ** 1.81 % 16.35 % 2016-01-01
685 Jagman26 ** 1.81 % 16.35 % 2016-01-01
686 Jaygoots ** 1.81 % 16.35 % 2016-01-01
687 Jimmys_Girl ** 1.81 % 16.35 % 2016-01-01
688 kujayhawk69 ** 1.81 % 6.41 % 2016-01-01
689 Kylee ** 1.81 % 16.35 % 2016-01-01
690 ldrltjg ** 1.81 % 16.35 % 2016-01-01
691 lestampoc ** 1.81 % 16.35 % 2016-01-01
692 liquidh2o ** 1.81 % 16.35 % 2016-01-01
693 Luke ** 1.81 % 16.35 % 2016-01-01
694 Magic ** 1.81 % 16.35 % 2016-01-01
695 marcusg ** 1.81 % 16.35 % 2016-01-01
696 martypantsss ** 1.81 % 16.35 % 2016-01-01
697 masinloc986 ** 1.81 % 16.35 % 2016-01-01
698 mikrodojr ** 1.81 % 16.35 % 2016-01-01
699 minhan_1408 ** 1.81 % 16.35 % 2016-01-01
700 mrfishing ** 1.81 % 16.35 % 2016-01-01
Rank Username MTD Returns YTD Returns Start Date
701 Mr_Mojo_Rising ** 1.81 % 16.35 % 2016-01-01
702 mustbev ** 1.81 % 16.35 % 2016-01-01
703 NationalGuard ** 1.81 % 16.35 % 2016-01-01
704 navgod34 ** 1.81 % 16.35 % 2016-01-01
705 Newbie ** 1.81 % 16.35 % 2016-01-01
706 nnewman ** 1.81 % 16.35 % 2016-01-01
707 pops ** 1.81 % 16.35 % 2016-01-01
708 pwagner3md ** 1.81 % 16.35 % 2016-01-01
709 rabbithimself ** 1.81 % 16.35 % 2016-01-01
710 Revanshill ** 1.81 % 16.35 % 2016-01-01
711 Rifleman ** 1.81 % 16.35 % 2016-01-01
712 rwmiller50 ** 1.81 % 16.35 % 2016-01-01
713 sball.ca ** 1.81 % 16.35 % 2016-01-01
714 SeaOtter ** 1.81 % 16.35 % 2016-01-01
715 shelby642 ** 1.81 % 16.35 % 2016-01-01
716 shoeboxgorilla ** 1.81 % 16.35 % 2016-01-01
717 skbn ** 1.81 % 16.35 % 2016-01-01
718 Slaymor ** 1.81 % 16.35 % 2016-01-01
719 Snake1b4 ** 1.81 % 16.35 % 2016-01-01
720 SPANK550 ** 1.81 % 16.35 % 2016-01-01
721 SR101 ** 1.81 % 16.35 % 2016-01-01
722 TaillightMafia ** 1.81 % 16.35 % 2016-01-01
723 taronsr ** 1.81 % 16.35 % 2016-01-01
724 tekpc2k2 ** 1.81 % 16.35 % 2016-01-01
725 theScientist ** 1.81 % 16.35 % 2016-01-01
726 tlmathe ** 1.81 % 16.35 % 2016-01-01
727 trwill7172 ** 1.81 % 16.35 % 2016-01-01
728 victoria ** 1.81 % 16.35 % 2016-01-01
729 vintage53 ** 1.81 % 16.35 % 2016-01-01
730 wolfpup77 ** 1.81 % 16.35 % 2016-01-01
731 Wulfie ** 1.81 % 16.35 % 2016-01-01
732 Johnnyatc ** 1.81 % 16.35 % 2016-01-01
733 Ahowell ** 1.81 % 16.35 % 2016-01-01
734 wsureshoot ** 1.81 % 16.35 % 2016-01-01
735 drewcifer ** 1.81 % 16.35 % 2016-01-01
736 Play_the_Extremes ** 1.81 % 16.35 % 2016-01-01
737 snwbrdr397 ** 1.81 % 16.35 % 2016-01-01
738 Handballer ** 1.81 % 16.35 % 2016-01-01
739 Steelhead ** 1.81 % 16.35 % 2016-01-01
740 wddolson ** 1.81 % 16.35 % 2016-01-01
741 pete1692 ** 1.81 % 16.35 % 2016-01-01
742 DetroitLifer ** 1.81 % 16.35 % 2016-01-01
743 jkdman ** 1.81 % 16.35 % 2016-01-01
744 driding ** 1.81 % 16.35 % 2016-01-01
745 Crackon ** 1.81 % 16.35 % 2016-01-01
746 LMBF_Method ** 1.81 % 16.35 % 2016-01-01
747 Jdubbs77 ** 1.81 % 16.35 % 2016-01-01
748 treadonme ** 1.81 % 16.35 % 2016-01-01
749 JPipkin ** 1.81 % 16.35 % 2016-01-01
750 P5439 ** 1.81 % 16.35 % 2016-01-01
Rank Username MTD Returns YTD Returns Start Date
751 robrtr ** 1.81 % 16.35 % 2016-01-01
752 vic ** 1.81 % 16.35 % 2016-01-01
753 Riverman62 ** 1.80 % 7.84 % 2016-01-01
754 redcard ** 1.80 % 9.71 % 2016-01-01
755 Inertia ** 1.80 % 5.62 % 2016-01-01
756 k9lowe ** 1.77 % 7.72 % 2016-01-01
757 argyle64 1.76 % 17.94 % 2016-01-01
758 ejholt ** 1.76 % 13.92 % 2016-01-01
759 adam 1.75 % 9.57 % 2016-01-01
760 BrandesValue ** 1.75 % 11.16 % 2016-01-01
761 TheGizz ** 1.75 % 8.14 % 2016-01-01
762 Weather_n_Leather ** 1.75 % 8.67 % 2016-01-01
763 Bmoredunks 1.74 % 12.86 % 2016-01-01
764 mescobedo1 1.74 % 13.40 % 2016-01-01
765 joewashdc ** 1.74 % 3.79 % 2016-07-12
766 JOSE123 ** 1.74 % 1.96 % 2016-01-01
767 Boxholder 1.73 % 11.06 % 2016-01-01
768 dano1001 ** 1.73 % 9.93 % 2016-01-01
769 liljersy ** 1.73 % 2.51 % 2016-01-01
770 lsutiger1985 ** 1.73 % 13.08 % 2016-01-01
771 remark 1.72 % -0.04 % 2016-01-01
772 BigLair 1.71 % 15.27 % 2016-01-01
773 Tamjay74 ** 1.70 % 14.35 % 2016-01-01
774 Markster70 1.67 % 10.71 % 2016-01-01
775 kemphrunner 1.67 % 19.18 % 2016-01-01
776 saxman ** 1.67 % 11.64 % 2016-01-01
777 lilbob ** 1.67 % 6.06 % 2016-01-01
778 gk10128 1.66 % 12.64 % 2016-01-01
779 ldm1958 ** 1.66 % 9.08 % 2016-01-01
780 CapeChem ** 1.65 % 7.27 % 2016-01-01
781 codezero ** 1.65 % 9.66 % 2016-01-01
782 pread ** 1.64 % 16.16 % 2016-01-01
783 playboy ** 1.64 % 9.95 % 2016-01-01
784 cvlsvt ** 1.62 % 7.85 % 2016-01-01
785 ferretgrl ** 1.62 % 11.87 % 2016-01-01
786 mikeginva ** 1.62 % 11.87 % 2016-01-01
787 felinecrl 1.61 % 9.87 % 2016-11-03
788 an2040 1.61 % 14.59 % 2016-06-20
789 miyagi ** 1.61 % 9.84 % 2016-01-01
790 tkd1982 ** 1.61 % 7.03 % 2016-01-01
791 paperbitch ** 1.61 % 13.98 % 2016-01-01
792 slakker97 ** 1.61 % 11.09 % 2016-01-01
793 Hoj19 ** 1.61 % 9.86 % 2016-01-01
794 mrduckmd1 1.60 % 7.38 % 2016-01-01
795 Kaufmanrider ** 1.60 % 5.80 % 2016-01-01
796 Jaybird79 ** 1.60 % 11.72 % 2016-01-01
797 FireGal ** 1.59 % 1.74 % 2016-01-01
798 meyersj ** 1.59 % 2.20 % 2016-01-01
799 weather ** 1.59 % 0.43 % 2016-01-01
800 L2030 1.59 % 7.07 % 2016-01-01
Rank Username MTD Returns YTD Returns Start Date
801 LeCouchonDingue ** 1.59 % 7.07 % 2016-01-01
802 DrScooter ** 1.59 % 7.07 % 2016-01-01
803 marka1620 ** 1.59 % 7.07 % 2016-01-01
804 pathalford ** 1.59 % 7.07 % 2016-01-01
805 pvnala 1.58 % 4.76 % 2016-01-01
806 cfwcfw ** 1.58 % 11.66 % 2016-01-01
807 tm85 ** 1.57 % 9.71 % 2016-01-06
808 drbama 1.56 % 16.22 % 2016-01-01
809 fwahn ** 1.56 % 3.26 % 2016-07-25
810 tjdorrie ** 1.55 % 7.37 % 2016-01-01
811 scrsvs 1.54 % 2.21 % 2016-01-01
812 sean101 1.54 % 5.98 % 2016-01-01
813 Phil46 ** 1.54 % 7.46 % 2016-01-01
814 canisdog ** 1.54 % 7.00 % 2016-01-01
815 riverdestiny ** 1.54 % 12.71 % 2016-01-01
816 clausja ** 1.52 % 6.97 % 2016-01-01
817 pinion 1.51 % 7.69 % 2016-01-01
818 20%_each 1.51 % 6.97 % 2016-01-01
819 parkbrau ** 1.51 % 6.33 % 2016-01-01
820 CDooge ** 1.51 % 6.97 % 2016-01-01
821 Rube ** 1.51 % 6.97 % 2016-01-01
822 pwclantdiv ** 1.51 % 6.46 % 2016-01-01
823 msm24 ** 1.51 % 6.97 % 2016-01-01
824 GonzoJK 1.50 % 11.99 % 2016-01-01
825 jbwalters 1.50 % 12.49 % 2016-01-01
826 Knight25 ** 1.50 % 3.43 % 2016-07-11
827 scsiguru ** 1.50 % 6.52 % 2016-01-01
828 Richard_Todd 1.49 % 10.09 % 2016-01-01
829 mdla ** 1.49 % 11.08 % 2016-01-01
830 scaltagi ** 1.49 % 10.47 % 2016-01-01
831 Carpatc ** 1.48 % 11.61 % 2016-01-01
832 ward5820 1.47 % 8.83 % 2016-07-07
833 NSLADL2 ** 1.47 % 23.00 % 2016-02-05
834 LilLair ** 1.47 % 6.91 % 2016-01-01
835 Risky1 ** 1.46 % 9.54 % 2016-01-01
836 Old_School 1.45 % 4.28 % 2016-01-01
837 poi9 1.45 % 12.74 % 2016-01-01
838 doge1976 ** 1.43 % 6.40 % 2016-01-01
839 catak ** 1.43 % 4.65 % 2016-01-01
840 evilanne 1.40 % 1.76 % 2016-08-01
841 ROBARE1 ** 1.40 % 12.36 % 2016-01-01
842 Striken7 ** 1.40 % 10.45 % 2016-01-01
843 hosscube ** 1.39 % 12.11 % 2016-01-27
844 peh160 ** 1.39 % 8.20 % 2016-01-01
845 ryencsik ** 1.39 % 18.04 % 2016-02-11
846 gobaird ** 1.39 % 7.96 % 2016-01-01
847 IWTC ** 1.38 % 1.38 % 2016-11-30
848 cosinecrunchdown 1.37 % 9.14 % 2016-01-06
849 mallardman89 ** 1.37 % 8.81 % 2016-01-01
850 uscfanhawaii 1.36 % 2.19 % 2016-01-01
Rank Username MTD Returns YTD Returns Start Date
851 cybermage ** 1.36 % 8.80 % 2016-01-01
852 tazzymt 1.35 % 9.62 % 2016-01-01
853 ksteiner560 1.35 % 9.87 % 2016-01-01
854 mschewy 1.34 % 2.30 % 2016-01-01
855 murph 1.33 % 13.84 % 2016-01-01
856 wam88 1.32 % 8.48 % 2016-01-01
857 les2l8 1.32 % 3.76 % 2016-01-01
858 Coolhand 1.32 % 5.64 % 2016-01-01
859 Kentucky ** 1.32 % 5.49 % 2016-01-01
860 Rogue 1.31 % 7.39 % 2016-01-01
861 Jayeks 1.31 % -5.72 % 2016-01-01
862 Sippeeboy 1.30 % 2.94 % 2016-01-01
863 endoskell ** 1.30 % 12.72 % 2016-01-01
864 planetalker ** 1.30 % 9.94 % 2016-01-01
865 Tangmonke 1.28 % 7.84 % 2016-01-01
866 Emcd14 ** 1.28 % 9.33 % 2016-01-01
867 Sauerjc ** 1.28 % 7.40 % 2016-01-01
868 Renoir ** 1.27 % 6.94 % 2016-01-01
869 lsrodgers ** 1.27 % 6.37 % 2016-01-01
870 cskoby ** 1.27 % 7.21 % 2016-01-01
871 shanidlc 1.26 % 8.17 % 2016-01-01
872 lkatme ** 1.26 % 10.24 % 2016-01-22
873 99percent ** 1.25 % 3.01 % 2016-01-01
874 HollywoodNY ** 1.22 % 5.28 % 2016-01-01
875 Jane 1.21 % 10.38 % 2016-01-01
876 Klausvonbg 1.21 % 1.47 % 2016-01-01
877 scout9999 ** 1.21 % 7.16 % 2016-01-01
878 cjheim ** 1.21 % 6.68 % 2016-01-01
879 Kevindraws53 ** 1.19 % 8.63 % 2016-01-01
880 safetyguy 1.18 % 2.73 % 2016-01-01
881 Klear 1.17 % 4.94 % 2016-01-01
882 Bender ** 1.17 % 7.19 % 2016-01-01
883 Blarney ** 1.17 % 1.22 % 2016-01-01
884 Pmnick114 ** 1.17 % 6.13 % 2016-01-01
885 pmaloney 1.16 % 6.28 % 2016-01-01
886 ROTOROOTER 1.16 % -4.16 % 2016-01-01
887 blackoutcl 1.15 % 2.31 % 2016-01-01
888 coinmanjack ** 1.15 % -0.77 % 2016-01-01
889 TradingJoe ** 1.14 % 4.45 % 2016-01-01
890 londi1tagaholy ** 1.14 % 6.99 % 2016-01-01
891 Rainmaker44 1.13 % -0.96 % 2016-01-01
892 p3a 1.13 % 0.85 % 2016-01-01
893 kcfz0t ** 1.13 % 5.47 % 2016-01-01
894 L2020 1.13 % 5.47 % 2016-01-01
895 KevinD ** 1.13 % 5.47 % 2016-01-01
896 wornout ** 1.13 % 5.47 % 2016-01-01
897 derosafj ** 1.13 % 5.47 % 2016-01-01
898 dpardue ** 1.13 % 5.47 % 2016-01-01
899 sjcook23 1.12 % 3.40 % 2016-01-05
900 arodiaz ** 1.12 % 3.20 % 2016-04-25
Rank Username MTD Returns YTD Returns Start Date
901 razorbckx ** 1.12 % 5.17 % 2016-01-01
902 puddy 1.11 % 7.74 % 2016-01-01
903 StockTater ** 1.11 % 2.79 % 2016-01-01
904 dave1203 1.10 % 7.07 % 2016-01-01
905 Medic72 1.10 % 8.06 % 2016-01-01
906 jpcavin ** 1.10 % 9.63 % 2016-01-01
907 Pwsimmons ** 1.10 % 17.12 % 2016-01-01
908 fossilbird ** 1.10 % 1.53 % 2016-01-01
909 soon2retire ** 1.10 % 4.61 % 2016-01-01
910 14ers ** 1.09 % 9.44 % 2016-01-01
911 ravenstreasures ** 1.08 % 8.25 % 2016-01-01
912 jchancellor ** 1.08 % 6.78 % 2016-05-09
913 dsnidernurse ** 1.08 % 7.92 % 2016-01-01
914 Luckycat ** 1.08 % 7.89 % 2016-01-01
915 moorelmm ** 1.07 % 7.81 % 2016-01-01
916 wxbug84 ** 1.07 % 8.12 % 2016-01-01
917 Pogo 1.06 % 9.10 % 2016-01-01
918 dexdecker ** 1.06 % 8.01 % 2016-01-01
919 gos3319 ** 1.06 % 9.18 % 2016-01-01
920 tataberto ** 1.05 % 8.18 % 2016-01-01
921 BIGfRED ** 1.05 % 6.66 % 2016-01-01
922 domino11 ** 1.05 % 9.07 % 2016-01-01
923 Elktracker 1.04 % 13.10 % 2016-01-01
924 timingbill ** 1.04 % 6.83 % 2016-04-27
925 StockSurfer 1.03 % 10.69 % 2016-01-01
926 4188729 ** 1.03 % 10.78 % 2016-05-05
927 Spaniard ** 1.03 % 9.28 % 2016-01-01
928 jms15714 ** 1.03 % 9.60 % 2016-01-01
929 rutiger ** 1.02 % 9.09 % 2016-01-01
930 GoNoles ** 1.02 % 8.82 % 2016-01-01
931 alexkoonce ** 1.01 % 7.65 % 2016-01-01
932 rich1 ** 1.00 % 9.36 % 2016-01-01
933 Skorp64 0.99 % 12.33 % 2016-01-01
934 JAFI ** 0.98 % 10.40 % 2016-02-09
935 RER754 0.96 % 11.71 % 2016-01-01
936 artie32 0.95 % 3.06 % 2016-01-01
937 TURNIPSEED ** 0.95 % 2.68 % 2016-01-01
938 crhuss ** 0.95 % 3.88 % 2016-01-01
939 bikeboyjoe ** 0.95 % 4.73 % 2016-01-01
940 PTSarge ** 0.95 % 6.72 % 2016-01-01
941 offroad ** 0.93 % 11.46 % 2016-01-01
942 merlin 0.92 % 6.72 % 2016-01-01
943 mbergevinjr 0.91 % 3.52 % 2016-01-01
944 BillD ** 0.91 % 5.78 % 2016-01-01
945 Rundp ** 0.91 % 6.66 % 2016-01-01
946 brobin10 0.90 % 3.58 % 2016-01-01
947 hotshot 0.90 % -10.51 % 2016-01-01
948 Skorcher 0.89 % 1.32 % 2016-01-01
949 clester 0.89 % 10.26 % 2016-01-01
950 arhodie ** 0.89 % 13.93 % 2016-01-01
Rank Username MTD Returns YTD Returns Start Date
951 yeot ** 0.89 % -0.99 % 2016-01-01
952 ezcomeezgo ** 0.88 % 5.08 % 2016-01-01
953 oast10 0.87 % 3.28 % 2016-07-25
954 batman 0.86 % 5.88 % 2016-01-01
955 Ringlord 0.86 % 9.91 % 2016-01-01
956 sdhoag13 0.85 % 5.93 % 2016-01-01
957 REDNECK ** 0.85 % 6.23 % 2016-01-01
958 zrgq014 0.83 % 7.54 % 2016-01-01
959 jinju 0.82 % 5.05 % 2016-01-01
960 Towanda 0.81 % 4.42 % 2016-01-01
961 Scrappy 0.80 % -7.64 % 2016-01-01
962 bmthomas0222 ** 0.80 % 6.19 % 2016-01-01
963 txfan 0.79 % 8.89 % 2016-01-01
964 MikeTHop77 ** 0.79 % 2.13 % 2016-01-01
965 joh1135 ** 0.79 % 1.87 % 2016-01-01
966 jnchandrew 0.78 % 16.95 % 2016-01-01
967 revel ** 0.78 % 4.15 % 2016-01-01
968 slsmul 0.77 % 10.07 % 2016-01-01
969 Wildwood 0.77 % -5.26 % 2016-01-01
970 BGBassLady64 ** 0.77 % 6.78 % 2016-01-01
971 Class 0.76 % 12.01 % 2016-01-01
972 babyneedsshoes 0.75 % 8.87 % 2016-01-01
973 Niner49er52 ** 0.75 % 8.28 % 2016-01-01
974 mtstricker ** 0.75 % -0.16 % 2016-01-01
975 bullsheet ** 0.74 % 6.30 % 2016-01-01
976 jpatriarca ** 0.73 % 4.36 % 2016-01-01
977 chingerson ** 0.71 % 4.50 % 2016-01-01
978 Nkim56 ** 0.70 % 5.03 % 2016-01-01
979 Yobubba69 ** 0.69 % 5.92 % 2016-01-01
980 slayer72 0.68 % 1.61 % 2016-01-01
981 farmerjack ** 0.68 % 3.65 % 2016-01-01
982 tofgfnd 0.67 % 7.30 % 2016-01-01
983 PEP 0.66 % 4.05 % 2016-01-01
984 aeroconfigs 0.66 % 13.49 % 2016-01-01
985 Bowfish ** 0.66 % 3.85 % 2016-01-01
986 bohammer ** 0.66 % 1.86 % 2016-01-01
987 tdorney1 ** 0.66 % 3.80 % 2016-01-01
988 North ** 0.65 % 4.63 % 2016-01-01
989 EarlyRetire 0.64 % 0.55 % 2016-01-01
990 L-Income 0.64 % 3.58 % 2016-01-01
991 ricokaro ** 0.64 % -0.55 % 2016-01-01
992 HJR ** 0.64 % 5.41 % 2016-01-01
993 betterdeal ** 0.64 % 3.58 % 2016-01-01
994 Crewdog ** 0.64 % 3.58 % 2016-01-01
995 iceman1jag ** 0.63 % 5.38 % 2016-01-01
996 FLTSPWatch ** 0.63 % 4.77 % 2016-01-01
997 amuraider ** 0.62 % 2.56 % 2016-01-01
998 NASAedStevens ** 0.61 % 4.14 % 2016-01-01
999 TSP4Soccer ** 0.61 % 5.95 % 2016-01-01
1000 joe6 0.60 % -6.37 % 2016-01-01
Rank Username MTD Returns YTD Returns Start Date
1001 sbates ** 0.60 % 4.47 % 2016-01-01
1002 PAINTER533 ** 0.60 % 3.98 % 2016-01-01
1003 MohammadXX 0.59 % 3.89 % 2016-01-01
1004 easterwood ** 0.59 % 10.05 % 2016-01-01
1005 kjohnsherr ** 0.58 % 4.33 % 2016-01-01
1006 jtpcpa ** 0.57 % 2.12 % 2016-02-03
1007 rytrucker ** 0.56 % 3.33 % 2016-01-01
1008 marine ** 0.55 % 4.69 % 2016-01-01
1009 sagramore ** 0.55 % 4.70 % 2016-01-01
1010 CallMeIshmael ** 0.54 % 3.30 % 2016-01-01
1011 rudyd3 ** 0.53 % 3.26 % 2016-01-01
1012 Carwin 0.52 % 4.96 % 2016-01-01
1013 novatwo 0.50 % -2.60 % 2016-01-01
1014 homieg24 0.50 % 7.52 % 2016-01-01
1015 Xilonen ** 0.50 % 1.85 % 2016-01-01
1016 daze823 0.48 % 8.12 % 2016-01-01
1017 SteelSaving 0.48 % 9.76 % 2016-01-01
1018 yanni123 ** 0.48 % 0.34 % 2016-01-01
1019 sunking ** 0.48 % 4.17 % 2016-01-01
1020 RushSlowly 0.47 % 8.39 % 2016-01-01
1021 Boots22 ** 0.46 % 1.11 % 2016-01-01
1022 helpme ** 0.46 % 2.22 % 2016-01-01
1023 jaybro61 ** 0.45 % 6.85 % 2016-01-01
1024 raiderddj 0.44 % -0.17 % 2016-01-01
1025 qibovin ** 0.41 % -2.46 % 2016-01-05
1026 Badgers69 0.40 % 8.36 % 2016-01-01
1027 EmoDx ** 0.40 % -2.32 % 2016-01-01
1028 slowhand1964 ** 0.40 % 2.87 % 2016-01-01
1029 Supercell68 0.39 % 12.44 % 2016-06-27
1030 Lakebound 0.37 % -0.33 % 2016-01-01
1031 FAAM 0.37 % 3.30 % 2016-01-01
1032 Greensboro 0.34 % 1.20 % 2016-01-01
1033 dwwright3rd ** 0.33 % 2.26 % 2016-01-01
1034 MadMike61 ** 0.33 % 0.25 % 2016-10-21
1035 DLBJr ** 0.30 % 1.85 % 2016-01-01
1036 Tawny27 0.29 % 2.51 % 2016-01-01
1037 RAM56 0.28 % 2.36 % 2016-01-01
1038 CaptainVic ** 0.28 % 2.09 % 2016-01-01
1039 siidman 0.27 % 12.01 % 2016-01-01
1040 c130 ** 0.27 % 12.18 % 2016-01-01
1041 jf_2016 0.26 % 7.32 % 2016-03-09
1042 RobinHood 0.26 % 6.45 % 2016-01-01
1043 OleyOlson 0.26 % 10.33 % 2016-01-01
1044 SMooreAce ** 0.26 % 1.83 % 2016-01-01
1045 PessOptimist ** 0.24 % 1.96 % 2016-01-01
1046 Semper ** 0.24 % 2.15 % 2016-01-01
1047 kraplrak 0.23 % 6.84 % 2016-01-21
1048 Latonia64 ** 0.23 % 1.85 % 2016-01-13
1049 Wasp49 ** 0.22 % 1.89 % 2016-01-01
1050 uf_rjeezy 0.20 % 7.77 % 2016-01-01
Rank Username MTD Returns YTD Returns Start Date
1051 FuturesTrader 0.20 % 1.82 % 2016-01-01
1052 judd1955 0.20 % 0.72 % 2016-08-08
1053 limebalz 0.20 % -3.64 % 2016-01-01
1054 TrailsofGlory 0.20 % 0.71 % 2016-08-11
1055 NavyGirl88 0.20 % 4.22 % 2016-01-01
1056 randy2000 0.20 % 1.82 % 2016-01-01
1057 amcaf 0.20 % 2.00 % 2016-01-01
1058 Double_Tap 0.20 % 6.26 % 2016-01-01
1059 KRSSDSU 0.20 % 13.13 % 2016-01-01
1060 Mauser 0.20 % 8.57 % 2016-01-01
1061 tmc1045 0.20 % 6.61 % 2016-01-01
1062 06savefor2012 0.20 % 3.14 % 2016-01-01
1063 flyoa1 0.20 % 4.54 % 2016-03-15
1064 BorderBlade 0.20 % 9.00 % 2016-01-01
1065 gegor 0.20 % 1.36 % 2016-01-01
1066 pointman72 0.20 % 8.59 % 2016-01-01
1067 userque 0.20 % 3.02 % 2016-01-01
1068 hicomndr 0.20 % 5.53 % 2016-01-01
1069 ike229 0.20 % 7.51 % 2016-05-13
1070 nanamoma 0.20 % -4.87 % 2016-01-01
1071 ROCKMAXX 0.20 % 3.05 % 2016-01-01
1072 2moryrs 0.20 % -1.25 % 2016-01-01
1073 Nadeem 0.20 % 14.06 % 2016-01-01
1074 BamaAF 0.20 % 11.51 % 2016-01-01
1075 Bluewing00 0.20 % 8.70 % 2016-04-12
1076 MacDaddy 0.20 % -13.22 % 2016-01-01
1077 swordandcross 0.20 % 1.60 % 2016-02-16
1078 tucotsp 0.20 % 5.25 % 2016-01-01
1079 whitemingo 0.20 % 2.70 % 2016-01-01
1080 12XU 0.20 % 2.44 % 2016-01-01
1081 dirtboy27 0.20 % 6.13 % 2016-01-01
1082 firstpersonpl 0.20 % 4.47 % 2016-01-01
1083 Cherylvamc 0.20 % 1.51 % 2016-02-23
1084 cowboyaug4 0.20 % 3.25 % 2016-01-01
1085 Roll_D_Dice 0.20 % 3.21 % 2016-01-01
1086 downspiral 0.20 % -0.02 % 2016-01-01
1087 gitkrunk 0.20 % -2.72 % 2016-01-01
1088 Greg 0.20 % 7.60 % 2016-01-01
1089 OnTarget 0.20 % 12.27 % 2016-01-01
1090 Meteorology 0.20 % 3.04 % 2016-01-01
1091 Nordic 0.20 % 2.59 % 2016-01-01
1092 Udflyer01 0.20 % 3.66 % 2016-01-01
1093 alevin 0.20 % 1.17 % 2016-01-01
1094 Cyberzen 0.20 % 1.82 % 2016-01-01
1095 kras 0.20 % 2.14 % 2016-01-01
1096 NOLANDER 0.20 % 0.43 % 2016-10-14
1097 kjb120169 0.20 % 3.51 % 2016-01-01
1098 Gumby 0.20 % 1.41 % 2016-01-01
1099 kdr1